Location: Lincolnton
(35.4660°N, 81.2500°W)
Time: 21:18:38
(UTC-05:00)

Hubble Space Telescope - Visible Passes

Search period start: 28 November 2014 00:00
Search period end: 08 December 2014 00:00
Orbit: 546 x 549 km, 28.5° (Epoch: 27 November)

Date Brightness Start Highest point End Pass type
(mag) Time Alt. Az. Time Alt. Az. Time Alt. Az.
28 Nov 2.2 05:31:36 25° SSW 05:32:31 27° S 05:36:04 10° SE visible
29 Nov 2.3 05:24:32 24° SSW 05:24:53 24° SSW 05:28:18 10° SE visible
30 Nov 2.6 05:17:28 21° S 05:17:28 21° S 05:20:27 10° SE visible
01 Dec 2.9 05:10:24 17° S 05:10:24 17° S 05:12:29 10° SSE visible
02 Dec 3.3 05:03:21 13° S 05:03:21 13° S 05:04:20 10° SSE visible
